[[{"header":{"parameterUnit":"m.s-1","parameterCategory":1,"la1":30.2991,"la2":30.254,"lo1":-89.0895,"lo2":-89.0444,"dy":0.0017,"dx":0.0017,"nx":28,"ny":28,"refTime":"2024-08-06T09:00:00:Z","depth":0,"parameterNumber":2,"parameterNumberName":"U-component_of_WINDS"},"data":[0,0,0,0,0,0,0,0,0,0,0,0,0,0,0,0,0,0,0,0,0,0,0,0,0,0,0,0,0,0,0,0,0,0,0,0,0,0,0,0,0,0,0,0,0,0,0,0,0,0,0,0,0,0,0,0,0,0,3.281,3.281,0,3.2824,3.2825,3.2825,3.2759,3.2757,3.2755,3.2753,3.2769,3.2772,3.2774,0,0,0,0,0,0,0,0,0,0,0,0,0,3.2727,3.2729,3.281,3.281,3.281,3.2824,3.2825,3.2825,3.2759,3.2757,3.2755,3.2752,3.2769,3.2771,3.2774,0,0,0,0,0,0,0,0,0,0,0,0,0,3.2755,3.273,3.281,3.2779,3.2776,3.2824,3.2825,3.2825,3.276,3.2757,3.2754,3.2751,3.2768,3.2771,3.2774,3.2853,0,0,3.2784,3.2786,0,0,0,0,0,0,0,0,3.2753,3.2758,3.2783,3.2781,3.2778,3.2787,3.2801,3.2834,3.2761,3.2766,3.2753,3.275,3.2778,3.278,3.2789,3.2853,3.2854,3.2785,3.2787,3.2788,3.2789,0,0,0,0,0,0,0,3.2752,3.2757,3.2815,3.2784,3.2781,3.2766,3.2766,3.2807,3.2788,3.2765,3.2761,3.2763,3.2776,3.2786,3.2789,3.2854,3.2785,3.2788,3.279,3.2791,3.2987,3.299,0,0,0,0,0,0,3.2753,3.2756,3.2815,3.2816,3.2758,3.2769,3.277,3.2787,3.2787,3.2784,3.2766,3.276,3.2782,3.2785,3.2789,3.2883,3.2788,3.2791,3.2793,3.2984,3.2988,3.2991,0,0,0,0,0,0,3.2752,3.2759,3.2814,3.2785,3.279,3.2774,3.2793,3.2789,3.2799,3.2787,3.2784,3.278,3.278,3.2785,3.2838,3.2883,3.2793,3.2796,3.298,3.2985,3.2989,3.307,0,0,0,0,0,0,3.275,3.2759,3.2788,3.2786,3.2792,3.2862,3.2796,3.2791,3.2805,3.2798,3.28,3.2797,3.2778,3.2833,3.2841,3.2886,3.2798,3.2976,3.2982,3.2988,3.3064,3.3077,3.3089,0,0,0,0,0,3.2747,3.281,3.279,3.2797,3.2828,3.2865,3.2869,3.2845,3.2809,3.2838,3.2831,3.2797,3.2876,3.2839,3.2848,3.2894,3.2973,3.298,3.2987,3.3058,3.3075,3.3089,0,0,0,0,0,0,3.2817,3.2809,3.2786,3.285,3.2859,3.2854,3.289,3.2863,3.2882,3.2875,3.2844,3.2846,3.2905,3.2904,3.2863,3.2971,3.2919,3.2928,3.2969,3.2985,3.2998,3.2997,3.2801,0,0,0,0,0,3.284,3.287,3.2861,3.2918,3.2924,3.2907,3.2922,3.2903,3.2911,3.2914,3.2911,3.292,3.2948,3.2966,3.299,3.3063,3.3064,3.3099,3.3112,3.3123,3.3131,3.3173,3.3189,3.3015,3.3015,3.3015,0,0,3.2887,3.2886,3.2907,3.2932,3.2937,3.297,3.291,3.2947,3.2972,3.292,3.2971,3.2969,3.2978,3.3042,3.307,3.3044,3.318,3.3132,3.314,3.3143,3.3182,3.3198,3.3213,3.302,3.3019,3.3018,0,0,3.2991,3.2992,3.3041,3.3048,3.3056,3.3044,3.3056,3.3056,3.3053,3.3104,3.3066,3.3096,3.3143,3.3151,3.3162,3.3273,3.3243,3.3281,3.3348,3.3389,3.3403,3.3415,3.3456,3.3471,3.329,3.329,3.329,0,3.3049,3.3097,3.307,3.3111,3.3124,3.3079,3.313,3.3137,3.3153,3.3164,3.3133,3.3193,3.3196,3.3263,3.329,3.33,3.3314,3.3281,3.3403,3.3415,3.3425,3.3465,3.348,3.3295,3.3294,3.3294,3.3293,0,3.3169,3.3203,3.3242,3.326,3.3277,3.3322,3.3304,3.3325,3.3305,3.3297,3.3351,3.3353,3.3378,3.3392,3.3373,3.3458,3.3442,3.3408,3.3354,3.3447,3.3484,3.3499,3.3302,3.33,3.3298,3.3297,0,0,3.3316,3.332,3.3335,3.3343,3.335,3.3377,3.3421,3.3446,3.3466,3.3479,3.3517,3.3559,3.3528,3.3541,3.3522,3.3558,3.3648,3.3519,3.3519,3.3545,3.3745,3.3772,3.379,3.3628,3.3631,3.3633,3.3745,0,3.342,3.3496,3.3474,3.355,3.3583,3.3542,3.3581,3.359,3.3585,3.3613,3.3607,3.3638,3.3594,3.3602,3.3635,3.363,3.3688,3.3622,3.3665,3.3667,3.3666,3.3808,3.3836,3.3942,3.3759,3.3761,3.3763,0,3.355,3.357,3.365,3.3654,3.3667,3.3702,3.3725,3.3751,3.3762,3.3756,3.3771,3.3746,3.3791,3.3738,3.3801,3.3756,3.3773,3.3774,3.3777,3.3781,3.3722,3.3818,3.3974,3.3991,3.3785,3.3783,3.3782,0,3.3653,3.3699,3.3753,3.3761,3.3767,3.3793,3.3797,3.3804,3.3822,3.3842,3.3853,3.3878,3.3893,3.3913,3.3897,3.3858,3.3964,3.3908,3.3962,3.3962,3.3986,3.3985,3.4149,3.3995,3.3994,3.3994,3.3994,0,3.3772,3.3823,3.38,3.3833,3.389,3.3866,3.3923,3.3922,3.393,3.3964,3.3929,3.3962,3.3937,3.3968,3.3955,3.4012,3.4018,3.4015,3.4011,3.4019,3.402,3.4031,3.4024,3.3998,3.3997,3.3997,3.3996,0,3.3896,3.3882,3.3939,3.394,3.3942,3.3984,3.3986,3.4018,3.401,3.4054,3.4063,3.4052,3.4087,3.4072,3.4109,3.41,3.4173,3.4159,3.417,3.4167,3.4222,3.4218,3.44,3.4424,3.4252,3.4254,3.4255,0,3.3973,3.4012,3.4018,3.4038,3.4045,3.4078,3.4096,3.4074,3.4094,3.4111,3.4141,3.4174,3.4198,3.4257,3.4253,3.4281,3.4269,3.433,3.4273,3.428,3.4272,3.4271,3.4276,3.4342,3.4344,3.4346,3.4347,0,3.4113,3.4105,3.4132,3.4158,3.4181,3.42,3.4216,3.4235,3.4214,3.4239,3.4275,3.4294,3.4333,3.4366,3.4392,3.4397,3.437,3.4366,3.438,3.4389,3.4395,3.4395,3.4203,3.4362,3.436,3.4359,3.4358,3.4358,3.4218,3.4251,3.4262,3.4294,3.4304,3.4321,3.4352,3.4349,3.4378,3.4408,3.4394,3.4436,3.4448,3.448,3.4489,3.4523,3.4499,3.4519,3.4525,3.453,3.4539,3.4388,3.4527,3.4527,3.4527,3.4526,3.4526,0,3.4358,3.4363,3.4393,3.4418,3.4444,3.4415,3.4433,3.4457,3.4494,3.4508,3.4533,3.4576,3.4609,3.4608,3.4639,3.4666,3.4655,3.4675,3.4674,3.4676,3.4557,3.4543,3.4684,3.4684,3.4684,3.4684,3.4684,3.4684,3.4434,3.449,3.4484,3.4546,3.455,3.4592,3.4605,3.4621,3.4631,3.4681,3.4708,3.4707,3.4716,3.4747,3.4777,3.4776,3.479,3.4816,3.481,3.47,3.4684,3.4669,3.4655,3.4818,3.4819,3.4926,3.4928,3.4928]},{"header":{"parameterUnit":"m.s-1","parameterCategory":1,"la1":30.2991,"la2":30.254,"lo1":-89.0895,"lo2":-89.0444,"dy":0.0017,"dx":0.0017,"nx":28,"ny":28,"refTime":"2024-08-06T09:00:00:Z","depth":0,"parameterNumber":3,"parameterNumberName":"V-component_of_WINDS"},"data":[0,0,0,0,0,0,0,0,0,0,0,0,0,0,0,0,0,0,0,0,0,0,0,0,0,0,0,0,0,0,0,0,0,0,0,0,0,0,0,0,0,0,0,0,0,0,0,0,0,0,0,0,0,0,0,0,0,0,-2.2934,-2.2934,0,-2.2991,-2.2992,-2.2993,-2.3022,-2.3022,-2.3022,-2.3022,-2.308,-2.3081,-2.3083,0,0,0,0,0,0,0,0,0,0,0,0,0,-2.2849,-2.2851,-2.2934,-2.2934,-2.2935,-2.2991,-2.2992,-2.2993,-2.3022,-2.3022,-2.3022,-2.3022,-2.3079,-2.3081,-2.3083,0,0,0,0,0,0,0,0,0,0,0,0,0,-2.2894,-2.2851,-2.2934,-2.2956,-2.2959,-2.2991,-2.2992,-2.2993,-2.3022,-2.3022,-2.3022,-2.3022,-2.3079,-2.3081,-2.3083,-2.3097,0,0,-2.309,-2.3091,0,0,0,0,0,0,0,0,-2.2892,-2.2897,-2.2952,-2.2955,-2.2958,-2.2999,-2.2984,-2.3028,-2.3022,-2.2998,-2.3022,-2.3022,-2.3053,-2.3057,-2.3068,-2.3099,-2.3102,-2.309,-2.3092,-2.3093,-2.3093,0,0,0,0,0,0,0,-2.2888,-2.2895,-2.2956,-2.2953,-2.2956,-2.2964,-2.297,-2.2992,-2.3024,-2.3,-2.3002,-2.3009,-2.3054,-2.3066,-2.307,-2.3103,-2.309,-2.3092,-2.3094,-2.3095,-2.3151,-2.3151,0,0,0,0,0,0,-2.2882,-2.2892,-2.2955,-2.2958,-2.2924,-2.2965,-2.2973,-2.2986,-2.3024,-2.303,-2.3009,-2.301,-2.3062,-2.3067,-2.3072,-2.3092,-2.3093,-2.3095,-2.3096,-2.3151,-2.3151,-2.3151,0,0,0,0,0,0,-2.288,-2.2887,-2.2952,-2.2926,-2.2935,-2.2967,-2.2982,-2.2987,-2.2999,-2.3031,-2.3037,-2.3014,-2.3062,-2.3069,-2.3091,-2.3094,-2.3096,-2.3098,-2.3151,-2.3151,-2.3151,-2.3131,0,0,0,0,0,0,-2.2877,-2.2886,-2.2891,-2.2926,-2.2936,-2.297,-2.2982,-2.2988,-2.3003,-2.3005,-2.3038,-2.3043,-2.3063,-2.3087,-2.3093,-2.3097,-2.31,-2.3151,-2.3151,-2.3151,-2.3132,-2.3131,-2.313,0,0,0,0,0,-2.2874,-2.2883,-2.2891,-2.2899,-2.2943,-2.297,-2.2976,-2.2999,-2.3003,-2.3008,-2.303,-2.3042,-2.3093,-2.3089,-2.3096,-2.3101,-2.315,-2.3151,-2.3151,-2.3132,-2.3131,-2.313,0,0,0,0,0,0,-2.2846,-2.2887,-2.2898,-2.2917,-2.294,-2.2975,-2.2983,-2.2996,-2.3018,-2.3019,-2.3046,-2.3053,-2.3073,-2.309,-2.3085,-2.3118,-2.3123,-2.3125,-2.3106,-2.3105,-2.3105,-2.31,-2.3102,0,0,0,0,0,-2.2843,-2.2862,-2.2896,-2.291,-2.2922,-2.295,-2.2963,-2.2979,-2.3003,-2.3013,-2.3035,-2.3059,-2.308,-2.3094,-2.3115,-2.3134,-2.3143,-2.3141,-2.314,-2.3139,-2.314,-2.3154,-2.3154,-2.3152,-2.3152,-2.3152,0,0,-2.2835,-2.286,-2.287,-2.2906,-2.2925,-2.2945,-2.2958,-2.2977,-2.2992,-2.3015,-2.3039,-2.3056,-2.3084,-2.3106,-2.3116,-2.312,-2.3143,-2.314,-2.3139,-2.314,-2.3154,-2.3155,-2.3155,-2.3152,-2.3152,-2.3152,0,0,-2.2832,-2.2852,-2.2867,-2.2887,-2.2916,-2.2936,-2.294,-2.2973,-2.2986,-2.301,-2.3028,-2.3047,-2.3082,-2.3102,-2.3117,-2.3123,-2.3136,-2.313,-2.3125,-2.3137,-2.3138,-2.3138,-2.3142,-2.3143,-2.3131,-2.3131,-2.3131,0,-2.2818,-2.2848,-2.2873,-2.2892,-2.2907,-2.2931,-2.2947,-2.2965,-2.3,-2.301,-2.3014,-2.3061,-2.3081,-2.3109,-2.3111,-2.3121,-2.3127,-2.3126,-2.3136,-2.3136,-2.3137,-2.3141,-2.3142,-2.313,-2.313,-2.313,-2.313,0,-2.2831,-2.2851,-2.286,-2.2895,-2.2912,-2.2929,-2.2957,-2.2971,-2.2985,-2.3005,-2.303,-2.3055,-2.3083,-2.3091,-2.3105,-2.3121,-2.3123,-2.313,-2.3137,-2.3136,-2.314,-2.3142,-2.3128,-2.3129,-2.3129,-2.3129,0,0,-2.281,-2.286,-2.2863,-2.288,-2.2916,-2.2932,-2.2951,-2.2979,-2.2992,-2.3015,-2.3033,-2.3064,-2.3073,-2.3089,-2.3106,-2.3117,-2.3123,-2.3124,-2.3125,-2.3124,-2.3144,-2.3139,-2.314,-2.3132,-2.3132,-2.3132,-2.3143,0,-2.2812,-2.2848,-2.2872,-2.2898,-2.2918,-2.2942,-2.2959,-2.2983,-2.3002,-2.3022,-2.3043,-2.3065,-2.3074,-2.3085,-2.3097,-2.3119,-2.3127,-2.3119,-2.3149,-2.315,-2.3142,-2.3142,-2.3135,-2.3144,-2.3144,-2.3144,-2.3145,0,-2.2819,-2.2844,-2.2872,-2.2908,-2.2918,-2.2932,-2.2961,-2.298,-2.3009,-2.3022,-2.3042,-2.3059,-2.3082,-2.3086,-2.3117,-2.3111,-2.3125,-2.3138,-2.3139,-2.3143,-2.3147,-2.3147,-2.3147,-2.3148,-2.3147,-2.3147,-2.3147,0,-2.2803,-2.2843,-2.2866,-2.2879,-2.2921,-2.2932,-2.2949,-2.2978,-2.2994,-2.302,-2.3031,-2.3058,-2.3073,-2.3094,-2.3119,-2.312,-2.3149,-2.3155,-2.3162,-2.3161,-2.3167,-2.3166,-2.317,-2.3174,-2.3174,-2.3174,-2.3174,0,-2.2803,-2.2819,-2.2859,-2.2873,-2.2894,-2.2921,-2.2941,-2.2961,-2.2987,-2.3006,-2.3027,-2.3045,-2.3076,-2.3098,-2.3117,-2.3142,-2.3148,-2.316,-2.3165,-2.3159,-2.3157,-2.3168,-2.3169,-2.3175,-2.3174,-2.3174,-2.3174,0,-2.2787,-2.2815,-2.2842,-2.288,-2.289,-2.2903,-2.2936,-2.2952,-2.2973,-2.2997,-2.3004,-2.3037,-2.3064,-2.3091,-2.3126,-2.314,-2.3164,-2.3171,-2.3155,-2.3158,-2.3163,-2.3163,-2.3175,-2.3179,-2.3179,-2.3179,-2.3179,0,-2.2786,-2.28,-2.284,-2.2855,-2.2873,-2.2896,-2.2913,-2.2941,-2.2959,-2.2994,-2.3005,-2.3034,-2.3058,-2.31,-2.3128,-2.3156,-2.3164,-2.3166,-2.3168,-2.3162,-2.3165,-2.3164,-2.3167,-2.3165,-2.3165,-2.3165,-2.3165,0,-2.2781,-2.2794,-2.2818,-2.2848,-2.2868,-2.2893,-2.2918,-2.2929,-2.2962,-2.298,-2.3009,-2.3028,-2.3066,-2.3094,-2.3126,-2.3145,-2.3161,-2.3164,-2.3167,-2.3161,-2.3152,-2.3158,-2.3153,-2.3163,-2.3164,-2.3164,-2.3164,-2.3164,-2.2773,-2.2788,-2.2819,-2.2846,-2.2868,-2.2892,-2.2909,-2.2933,-2.2957,-2.299,-2.3006,-2.3034,-2.3065,-2.311,-2.3129,-2.3152,-2.3156,-2.316,-2.3162,-2.3163,-2.3162,-2.3148,-2.3158,-2.3158,-2.3158,-2.3158,-2.3158,0,-2.277,-2.2792,-2.2817,-2.2852,-2.2874,-2.2887,-2.2917,-2.2934,-2.2959,-2.2986,-2.3011,-2.3044,-2.3073,-2.3104,-2.3134,-2.3147,-2.3156,-2.3155,-2.3154,-2.3159,-2.3156,-2.315,-2.3148,-2.3148,-2.3148,-2.3148,-2.3148,-2.3148,-2.2771,-2.2797,-2.2814,-2.2852,-2.2874,-2.2903,-2.2919,-2.2941,-2.2963,-2.3,-2.3025,-2.3045,-2.3074,-2.3107,-2.3135,-2.3143,-2.3154,-2.3151,-2.3162,-2.3158,-2.3159,-2.3159,-2.3155,-2.3153,-2.3153,-2.3163,-2.3163,-2.3163]}]]